| time (UTC) | temp F | wind direction | speed MPH | gust MPH | rain 1hr in | rain 24hr in | rain mn in | humidity % | barometer mb |
| 20260906203004 | 89 | 360 | 10.0 | 18.0 | 0.00 | 0.00 | 0.00 | 46 | 1006.1 |
| 20260906201524 | 89 | 360 | 8.0 | 17.0 | 0.00 | 0.00 | 0.00 | 48 | 1006.4 |
| 20260906200031 | 88 | 360 | 8.0 | 21.0 | 0.00 | 0.00 | 0.00 | 50 | 1006.6 |
| 20260906194539 | 88 | 360 | 8.0 | 20.0 | 0.00 | 0.00 | 0.00 | 50 | 1006.8 |
| 20260906193056 | 87 | 360 | 10.0 | 19.0 | 0.00 | 0.00 | 0.00 | 50 | 1007.0 |
| 20260906191512 | 87 | 360 | 10.0 | 18.0 | 0.00 | 0.00 | 0.00 | 50 | 1007.1 |
| 20260906190028 | 87 | 360 | 7.0 | 19.0 | 0.00 | 0.00 | 0.00 | 49 | 1007.2 |
| 20260906184550 | 87 | 360 | 11.0 | 17.0 | 0.00 | 0.00 | 0.00 | 50 | 1007.1 |
| 20260906183006 | 86 | 360 | 6.0 | 19.0 | 0.00 | 0.00 | 0.00 | 50 | 1007.5 |
| 20260906181512 | 85 | 360 | 8.0 | 20.0 | 0.00 | 0.00 | 0.00 | 53 | 1007.7 |
| 20260906180016 | 84 | 360 | 10.0 | 21.0 | 0.00 | 0.00 | 0.00 | 57 | 1008.0 |
| 20260906174524 | 84 | 360 | 9.0 | 16.0 | 0.00 | 0.00 | 0.00 | 56 | 1008.3 |
| 20260906173025 | 83 | 360 | 8.0 | 21.0 | 0.00 | 0.00 | 0.00 | 57 | 1008.4 |
| 20260906171532 | 82 | 360 | 8.0 | 18.0 | 0.00 | 0.00 | 0.00 | 61 | 1008.7 |
| 20260906170037 | 82 | 360 | 9.0 | 22.0 | 0.00 | 0.00 | 0.00 | 61 | 1008.8 |
| 20260906164546 | 81 | 360 | 13.0 | 24.0 | 0.00 | 0.00 | 0.00 | 61 | 1009.0 |
| 20260906163039 | 79 | 360 | 13.0 | 20.0 | 0.00 | 0.00 | 0.00 | 65 | 1009.2 |
| 20260906161542 | 78 | 360 | 12.0 | 18.0 | 0.00 | 0.00 | 0.00 | 66 | 1009.1 |
| 20260906160050 | 77 | 360 | 12.0 | 18.0 | 0.00 | 0.00 | 0.00 | 70 | 1008.9 |
| 20260906154602 | 76 | 360 | 10.0 | 18.0 | 0.00 | 0.00 | 0.00 | 77 | 1009.1 |
| 20260906153016 | 74 | 360 | 10.0 | 16.0 | 0.00 | 0.00 | 0.00 | 81 | 1009.0 |
| 20260906151530 | 73 | 360 | 12.0 | 18.0 | 0.00 | 0.00 | 0.00 | 83 | 1009.2 |
| 20260906150059 | 71 | 360 | 13.0 | 19.0 | 0.00 | 0.00 | 0.00 | 85 | 1009.3 |
| 20260906144553 | 71 | 360 | 10.0 | 20.0 | 0.00 | 0.00 | 0.00 | 87 | 1009.1 |
| 20260906143110 | 70 | 360 | 10.0 | 16.0 | 0.00 | 0.00 | 0.00 | 89 | 1009.1 |
| 20260906141503 | 68 | 360 | 7.0 | 13.0 | 0.00 | 0.00 | 0.00 | 92 | 1009.0 |
| 20260906140025 | 68 | 360 | 6.0 | 10.0 | 0.00 | 0.00 | 0.00 | 94 | 1008.8 |
| 20260906134530 | 67 | 360 | 6.0 | 11.0 | 0.00 | 0.00 | 0.00 | 95 | 1008.6 |
| 20260906133025 | 66 | 360 | 5.0 | 10.0 | 0.00 | 0.00 | 0.00 | 94 | 1008.2 |
| 20260906131540 | 66 | 360 | 5.0 | 12.0 | 0.00 | 0.00 | 0.00 | 94 | 1008.3 |
| 20260906130054 | 66 | 360 | 4.0 | 8.0 | 0.00 | 0.00 | 0.00 | 94 | 1008.3 |
| 20260906124555 | 66 | 360 | 4.0 | 8.0 | 0.00 | 0.00 | 0.00 | 94 | 1008.3 |
| 20260906123001 | 66 | 360 | 4.0 | 10.0 | 0.00 | 0.00 | 0.00 | 94 | 1008.3 |
| 20260906121520 | 66 | 360 | 4.0 | 9.0 | 0.00 | 0.00 | 0.00 | 93 | 1008.4 |
| 20260906120038 | 66 | 360 | 3.0 | 8.0 | 0.00 | 0.00 | 0.00 | 93 | 1008.3 |
| 20260906114602 | 66 | 360 | 4.0 | 11.0 | 0.00 | 0.00 | 0.00 | 93 | 1008.5 |
| 20260906113049 | 66 | 360 | 7.0 | 13.0 | 0.00 | 0.00 | 0.00 | 92 | 1008.5 |
| 20260906111507 | 66 | 360 | 6.0 | 11.0 | 0.00 | 0.00 | 0.00 | 91 | 1008.5 |
| 20260906110024 | 66 | 360 | 6.0 | 10.0 | 0.00 | 0.00 | 0.00 | 90 | 1008.5 |
| 20260906104546 | 66 | 360 | 3.0 | 6.0 | 0.00 | 0.00 | 0.00 | 89 | 1008.4 |
| 20260906103101 | 67 | 360 | 2.0 | 6.0 | 0.00 | 0.00 | 0.00 | 88 | 1008.3 |
| 20260906101522 | 67 | 360 | 0.0 | 3.0 | 0.00 | 0.00 | 0.00 | 86 | 1008.0 |
| 20260906100029 | 68 | 360 | 0.0 | 2.0 | 0.00 | 0.00 | 0.00 | 85 | 1007.8 |
| 20260906094545 | 69 | 360 | 1.0 | 4.0 | 0.00 | 0.00 | 0.00 | 84 | 1007.6 |
| 20260906093046 | 71 | 360 | 2.0 | 5.0 | 0.00 | 0.00 | 0.00 | 80 | 1007.7 |
| 20260906091552 | 73 | 360 | 2.0 | 5.0 | 0.00 | 0.00 | 0.00 | 74 | 1007.5 |
| 20260906090001 | 73 | 360 | 3.0 | 5.0 | 0.00 | 0.00 | 0.00 | 73 | 1007.5 |
| 20260906084523 | 73 | 360 | 3.0 | 11.0 | 0.00 | 0.00 | 0.00 | 74 | 1007.8 |
| 20260906083029 | 73 | 360 | 1.0 | 8.0 | 0.00 | 0.00 | 0.00 | 73 | 1007.2 |
| 20260906081534 | 73 | 360 | 4.0 | 10.0 | 0.00 | 0.00 | 0.00 | 72 | 1006.8 |
| 20260906080058 | 73 | 360 | 3.0 | 6.0 | 0.00 | 0.00 | 0.00 | 73 | 1006.8 |
| 20260906074522 | 73 | 360 | 2.0 | 5.0 | 0.00 | 0.00 | 0.00 | 73 | 1007.0 |
| 20260906073036 | 73 | 360 | 2.0 | 5.0 | 0.00 | 0.00 | 0.00 | 73 | 1007.0 |
| 20260906071505 | 73 | 360 | 3.0 | 8.0 | 0.00 | 0.00 | 0.00 | 73 | 1006.8 |
| 20260906070021 | 73 | 360 | 4.0 | 9.0 | 0.00 | 0.00 | 0.00 | 73 | 1006.9 |
| 20260906064514 | 73 | 360 | 3.0 | 11.0 | 0.00 | 0.00 | 0.00 | 73 | 1006.9 |
| 20260906063011 | 73 | 360 | 7.0 | 10.0 | 0.00 | 0.00 | 0.00 | 73 | 1007.1 |
| 20260906061531 | 73 | 360 | 5.0 | 9.0 | 0.00 | 0.00 | 0.00 | 72 | 1006.7 |
| 20260906060035 | 73 | 360 | 4.0 | 10.0 | 0.00 | 0.00 | 0.00 | 72 | 1006.5 |
| 20260906054625 | 73 | 360 | 4.0 | 9.0 | 0.00 | 0.00 | 0.00 | 72 | 1006.2 |
| 20260906053019 | 73 | 360 | 3.0 | 8.0 | 0.00 | 0.00 | 0.00 | 72 | 1006.1 |
| 20260906051528 | 73 | 360 | 5.0 | 9.0 | 0.00 | 0.00 | 0.00 | 71 | 1006.1 |
| 20260906050041 | 74 | 360 | 3.0 | 5.0 | 0.00 | 0.00 | 0.00 | 70 | 1006.2 |
| 20260906044549 | 75 | 360 | 3.0 | 8.0 | 0.00 | 0.00 | 0.00 | 69 | 1006.1 |
| 20260906043100 | 75 | 360 | 2.0 | 6.0 | 0.00 | 0.00 | 0.00 | 67 | 1006.4 |
| 20260906041517 | 76 | 360 | 4.0 | 6.0 | 0.00 | 0.00 | 0.00 | 67 | 1006.4 |
| 20260906040045 | 76 | 360 | 3.0 | 6.0 | 0.00 | 0.00 | 0.00 | 65 | 1006.3 |
| 20260906034553 | 77 | 360 | 2.0 | 8.0 | 0.00 | 0.00 | 0.00 | 64 | 1006.4 |
| 20260906033108 | 78 | 360 | 4.0 | 11.0 | 0.00 | 0.00 | 0.00 | 62 | 1006.2 |
| 20260906031552 | 78 | 360 | 4.0 | 9.0 | 0.00 | 0.00 | 0.00 | 60 | 1006.3 |
| 20260906030039 | 79 | 360 | 7.0 | 16.0 | 0.00 | 0.00 | 0.00 | 58 | 1006.2 |
| 20260906024600 | 80 | 360 | 6.0 | 13.0 | 0.00 | 0.00 | 0.00 | 58 | 1006.0 |
| 20260906023007 | 82 | 360 | 7.0 | 16.0 | 0.00 | 0.00 | 0.00 | 56 | 1005.7 |
| 20260906021517 | 83 | 360 | 6.0 | 12.0 | 0.00 | 0.00 | 0.00 | 54 | 1005.6 |
| 20260906020035 | 83 | 360 | 6.0 | 13.0 | 0.00 | 0.00 | 0.00 | 54 | 1005.6 |
| 20260906014556 | 83 | 360 | 2.0 | 5.0 | 0.00 | 0.00 | 0.00 | 53 | 1005.5 |
| 20260906013003 | 84 | 360 | 2.0 | 3.0 | 0.00 | 0.00 | 0.00 | 50 | 1005.5 |
| 20260906011529 | 86 | 360 | 1.0 | 8.0 | 0.00 | 0.00 | 0.00 | 48 | 1005.3 |
| 20260906010047 | 87 | 360 | 3.0 | 8.0 | 0.00 | 0.00 | 0.00 | 46 | 1005.2 |
| 20260906004550 | 88 | 360 | 4.0 | 9.0 | 0.00 | 0.00 | 0.00 | 45 | 1004.9 |
| 20260906003050 | 88 | 360 | 6.0 | 13.0 | 0.00 | 0.00 | 0.00 | 44 | 1004.5 |
| 20260906001509 | 88 | 360 | 8.0 | 15.0 | 0.00 | 0.00 | 0.00 | 44 | 1004.3 |
| 20260906000022 | 88 | 360 | 6.0 | 12.0 | 0.00 | 0.00 | 0.00 | 43 | 1004.4 |
| 20260905234550 | 89 | 360 | 6.0 | 12.0 | 0.00 | 0.00 | 0.00 | 42 | 1004.5 |
| 20260905233005 | 90 | 360 | 8.0 | 16.0 | 0.00 | 0.00 | 0.00 | 40 | 1004.5 |
| 20260905231526 | 92 | 360 | 8.0 | 16.0 | 0.00 | 0.00 | 0.00 | 36 | 1004.3 |
| 20260905230039 | 93 | 360 | 10.0 | 21.0 | 0.00 | 0.00 | 0.00 | 35 | 1004.2 |
| 20260905224541 | 93 | 360 | 11.0 | 17.0 | 0.00 | 0.00 | 0.00 | 36 | 1004.0 |
| 20260905223050 | 92 | 360 | 11.0 | 21.0 | 0.00 | 0.00 | 0.00 | 38 | 1003.9 |
| 20260905221509 | 93 | 360 | 7.0 | 18.0 | 0.00 | 0.00 | 0.00 | 38 | 1003.8 |
| 20260905220025 | 92 | 360 | 8.0 | 18.0 | 0.00 | 0.00 | 0.00 | 40 | 1003.9 |
| 20260905214545 | 92 | 360 | 10.0 | 21.0 | 0.00 | 0.00 | 0.00 | 36 | 1004.2 |
| 20260905213101 | 92 | 360 | 10.0 | 21.0 | 0.00 | 0.00 | 0.00 | 37 | 1004.2 |
| 20260905211508 | 93 | 360 | 9.0 | 21.0 | 0.00 | 0.00 | 0.00 | 40 | 1004.4 |